When you browse on this site, cookies collect data to enhance your experience and personalize the content and advertising you see.
Visit our Privacy Policy to learn more. By continuing to use the site, you agree to this use of cookies and data.
  • In Schweiz
  • Länderverzeichnis
  • Für 7 Tage
  • Wassertemperatur
  • Wetterkarte
  • Widgets
  • user-avatar
    Anmelden

    Stündliche Wetter Dundee

    Heute, 3 April, Freitag

    Zeit Temperatur Niederschläge Wind Luftdruck Luftfeuchtigkeit
    00:00 -2°C° 0 mm 4 m/S 747 mmHg 75%
    01:00 -2°C° 0 mm 4 m/S 747 mmHg 77%
    02:00 -2°C° 0 mm 4 m/S 747 mmHg 78%
    03:00 -2°C° 0 mm 4 m/S 747 mmHg 79%
    04:00 -2°C° 0 mm 4 m/S 747 mmHg 79%
    05:00 -2°C° 0 mm 4 m/S 748 mmHg 80%
    06:00 -2°C° 0 mm 4 m/S 748 mmHg 80%
    07:00 0°C° 0 mm 4 m/S 748 mmHg 74%
    08:00 +1°C° 0 mm 4 m/S 748 mmHg 68%
    09:00 +4°C° 0 mm 4 m/S 747 mmHg 63%
    10:00 +5°C° 0 mm 4 m/S 748 mmHg 61%
    11:00 +5°C° 0 mm 4 m/S 748 mmHg 59%
    12:00 +6°C° 0 mm 4 m/S 748 mmHg 58%
    13:00 +6°C° 0.1 mm 4 m/S 748 mmHg 57%
    14:00 +7°C° 0.1 mm 5 m/S 748 mmHg 56%
    15:00 +7°C° 0.1 mm 5 m/S 748 mmHg 55%
    16:00 +6°C° 0 mm 4 m/S 748 mmHg 59%
    17:00 +6°C° 0 mm 4 m/S 749 mmHg 63%
    18:00 +5°C° 0 mm 3 m/S 749 mmHg 67%
    19:00 +4°C° 0 mm 3 m/S 749 mmHg 72%
    20:00 +4°C° 0 mm 2 m/S 749 mmHg 77%
    21:00 +3°C° 0 mm 1 m/S 749 mmHg 82%
    22:00 +3°C° 0 mm 1 m/S 750 mmHg 84%
    23:00 +3°C° 0 mm 1 m/S 750 mmHg 86%

    Morgen, 4 April, Samstag

    Zeit Temperatur Niederschläge Wind Luftdruck Luftfeuchtigkeit
    00:00 +3°C° 0 mm 1 m/S 750 mmHg 88%
    01:00 +3°C° 0 mm 1 m/S 750 mmHg 89%
    02:00 +3°C° 0 mm 1 m/S 750 mmHg 89%
    03:00 +3°C° 0 mm 1 m/S 750 mmHg 90%
    04:00 +3°C° 0 mm 2 m/S 749 mmHg 90%
    05:00 +3°C° 0 mm 2 m/S 749 mmHg 90%
    06:00 +3°C° 0 mm 2 m/S 749 mmHg 91%
    07:00 +4°C° 0 mm 2 m/S 749 mmHg 87%
    08:00 +5°C° 0 mm 2 m/S 749 mmHg 83%
    09:00 +7°C° 0 mm 3 m/S 749 mmHg 80%
    10:00 +7°C° 0 mm 3 m/S 750 mmHg 76%
    11:00 +7°C° 0 mm 4 m/S 750 mmHg 72%
    12:00 +8°C° 0 mm 4 m/S 750 mmHg 68%
    13:00 +8°C° 0.1 mm 5 m/S 750 mmHg 68%
    14:00 +8°C° 0.1 mm 5 m/S 749 mmHg 67%
    15:00 +8°C° 0.1 mm 6 m/S 749 mmHg 67%
    16:00 +8°C° 0 mm 5 m/S 749 mmHg 69%
    17:00 +8°C° 0 mm 5 m/S 749 mmHg 71%
    18:00 +7°C° 0 mm 5 m/S 748 mmHg 73%
    19:00 +6°C° 0 mm 4 m/S 748 mmHg 76%
    20:00 +6°C° 0 mm 4 m/S 748 mmHg 79%
    21:00 +5°C° 0 mm 4 m/S 748 mmHg 82%
    22:00 +5°C° 0 mm 3 m/S 748 mmHg 83%
    23:00 +5°C° 0 mm 3 m/S 748 mmHg 85%

    übermorgen, 5 April, Sonntag

    Zeit Temperatur Niederschläge Wind Luftdruck Luftfeuchtigkeit
    00:00 +5°C° 0 mm 3 m/S 748 mmHg 86%
    01:00 +4°C° 0 mm 3 m/S 748 mmHg 88%
    02:00 +4°C° 0 mm 3 m/S 747 mmHg 90%
    03:00 +3°C° 0 mm 3 m/S 747 mmHg 92%
    04:00 +3°C° 0 mm 3 m/S 747 mmHg 92%
    05:00 +3°C° 0 mm 3 m/S 746 mmHg 92%
    06:00 +3°C° 0 mm 3 m/S 746 mmHg 93%
    07:00 +5°C° 0 mm 4 m/S 745 mmHg 88%
    08:00 +6°C° 0 mm 4 m/S 745 mmHg 83%
    09:00 +8°C° 0 mm 5 m/S 744 mmHg 78%
    10:00 +9°C° 0 mm 5 m/S 744 mmHg 72%
    11:00 +10°C° 0 mm 6 m/S 743 mmHg 66%
    12:00 +12°C° 0 mm 7 m/S 743 mmHg 60%
    13:00 +12°C° 0 mm 7 m/S 742 mmHg 59%
    14:00 +13°C° 0 mm 8 m/S 741 mmHg 58%
    15:00 +15°C° 0 mm 8 m/S 740 mmHg 57%
    16:00 +13°C° 0 mm 8 m/S 740 mmHg 61%
    17:00 +13°C° 0 mm 8 m/S 739 mmHg 65%
    18:00 +12°C° 0 mm 7 m/S 738 mmHg 69%
    19:00 +12°C° 0 mm 7 m/S 738 mmHg 72%
    20:00 +11°C° 0 mm 7 m/S 738 mmHg 74%
    21:00 +11°C° 0 mm 7 m/S 738 mmHg 76%
    22:00 +11°C° 0.1 mm 7 m/S 737 mmHg 78%
    23:00 +11°C° 0.1 mm 7 m/S 737 mmHg 81%

    6 April, Montag

    Zeit Temperatur Niederschläge Wind Luftdruck Luftfeuchtigkeit
    00:00 +10°C° 0.1 mm 7 m/S 736 mmHg 84%
    01:00 +10°C° 0.3 mm 7 m/S 736 mmHg 84%
    02:00 +10°C° 0.3 mm 8 m/S 736 mmHg 85%
    03:00 +8°C° 0.3 mm 9 m/S 736 mmHg 85%
    04:00 +7°C° 0.1 mm 8 m/S 737 mmHg 85%
    05:00 +6°C° 0.1 mm 7 m/S 738 mmHg 85%
    06:00 +5°C° 0.1 mm 6 m/S 738 mmHg 85%
    07:00 +6°C° 0 mm 7 m/S 739 mmHg 80%
    08:00 +6°C° 0 mm 7 m/S 740 mmHg 74%
    09:00 +7°C° 0 mm 8 m/S 741 mmHg 68%
    10:00 +7°C° 0 mm 8 m/S 742 mmHg 65%
    11:00 +8°C° 0 mm 9 m/S 743 mmHg 61%
    12:00 +8°C° 0 mm 9 m/S 744 mmHg 57%
    13:00 +10°C° 0.1 mm 9 m/S 746 mmHg 56%
    14:00 +10°C° 0.1 mm 9 m/S 747 mmHg 55%
    15:00 +10°C° 0.1 mm 8 m/S 748 mmHg 54%
    16:00 +9°C° 0 mm 7 m/S 749 mmHg 56%
    17:00 +8°C° 0 mm 6 m/S 750 mmHg 59%
    18:00 +7°C° 0 mm 5 m/S 751 mmHg 61%
    19:00 +6°C° 0 mm 5 m/S 752 mmHg 65%
    20:00 +5°C° 0 mm 4 m/S 754 mmHg 69%
    21:00 +4°C° 0 mm 3 m/S 755 mmHg 73%
    22:00 +4°C° 0 mm 3 m/S 755 mmHg 74%
    23:00 +3°C° 0 mm 3 m/S 756 mmHg 75%

    7 April, Dienstag

    Zeit Temperatur Niederschläge Wind Luftdruck Luftfeuchtigkeit
    00:00 +3°C° 0 mm 3 m/S 757 mmHg 76%
    01:00 +3°C° 0 mm 3 m/S 757 mmHg 80%
    02:00 +3°C° 0 mm 3 m/S 758 mmHg 83%
    03:00 +3°C° 0 mm 3 m/S 758 mmHg 86%
    04:00 +2°C° 0 mm 3 m/S 758 mmHg 88%
    05:00 +2°C° 0 mm 3 m/S 759 mmHg 89%
    06:00 +2°C° 0 mm 3 m/S 759 mmHg 91%
    07:00 +4°C° 0 mm 4 m/S 759 mmHg 83%
    08:00 +5°C° 0 mm 5 m/S 760 mmHg 75%
    09:00 +6°C° 0 mm 7 m/S 760 mmHg 67%
    10:00 +8°C° 0 mm 7 m/S 760 mmHg 63%
    11:00 +9°C° 0 mm 7 m/S 760 mmHg 59%
    12:00 +10°C° 0 mm 8 m/S 760 mmHg 55%
    13:00 +11°C° 0 mm 8 m/S 760 mmHg 56%
    14:00 +11°C° 0 mm 8 m/S 760 mmHg 56%
    15:00 +11°C° 0 mm 8 m/S 759 mmHg 56%
    16:00 +10°C° 0 mm 7 m/S 759 mmHg 61%
    17:00 +9°C° 0 mm 7 m/S 759 mmHg 65%
    18:00 +8°C° 0 mm 6 m/S 759 mmHg 69%
    19:00 +7°C° 0 mm 5 m/S 760 mmHg 72%
    20:00 +6°C° 0 mm 4 m/S 760 mmHg 76%
    21:00 +5°C° 0 mm 4 m/S 760 mmHg 79%
    22:00 +5°C° 0 mm 4 m/S 760 mmHg 81%
    23:00 +4°C° 0 mm 4 m/S 761 mmHg 83%

    8 April, Mittwoch

    Zeit Temperatur Niederschläge Wind Luftdruck Luftfeuchtigkeit
    00:00 +4°C° 0 mm 3 m/S 761 mmHg 85%
    01:00 +4°C° 0 mm 3 m/S 760 mmHg 87%
    02:00 +3°C° 0 mm 3 m/S 760 mmHg 88%
    03:00 +3°C° 0 mm 3 m/S 760 mmHg 90%
    04:00 +4°C° 0 mm 2 m/S 760 mmHg 90%
    05:00 +3°C° 0 mm 2 m/S 760 mmHg 90%
    06:00 +3°C° 0 mm 2 m/S 760 mmHg 90%
    07:00 +5°C° 0 mm 2 m/S 760 mmHg 84%
    08:00 +7°C° 0 mm 2 m/S 759 mmHg 78%
    09:00 +9°C° 0 mm 2 m/S 759 mmHg 72%
    10:00 +10°C° 0 mm 2 m/S 759 mmHg 68%
    11:00 +12°C° 0 mm 2 m/S 759 mmHg 64%
    12:00 +13°C° 0 mm 3 m/S 758 mmHg 60%
    13:00 +13°C° 0 mm 3 m/S 758 mmHg 62%
    14:00 +13°C° 0 mm 3 m/S 757 mmHg 63%
    15:00 +14°C° 0 mm 4 m/S 757 mmHg 65%
    16:00 +13°C° 0 mm 3 m/S 756 mmHg 70%
    17:00 +12°C° 0 mm 3 m/S 756 mmHg 74%
    18:00 +12°C° 0 mm 2 m/S 755 mmHg 78%
    19:00 +12°C° 0 mm 2 m/S 755 mmHg 80%
    20:00 +12°C° 0 mm 2 m/S 755 mmHg 81%
    21:00 +12°C° 0 mm 2 m/S 755 mmHg 83%
    22:00 +10°C° 0 mm 2 m/S 754 mmHg 85%
    23:00 +10°C° 0 mm 2 m/S 754 mmHg 88%
    Mehr zeigen